This demonstration page uses our WeatherBlox Daily Observations layout. Learn more.

Left ArrowRight Arrow

Hourly Observations for April 23, 2018

Temp ( °F °C ) Dew Point ( °F °C ) Humidity (%) Winds ( mph kmh ) Pressure ( in mb ) Visibility ( mi km ) Precip ( " mm )
12:53 am 00:53 Cloudy 52 11.1 44 6.7 75 75 Calm 30.17 1022 10 16 0.00 0.00
1:53 am 01:53 Cloudy 50 10 44 6.7 80 80 NW 3 6 30.16 1022 10 16 0.00 0.00
2:53 am 02:53 Cloudy 50 10 43 6.1 77 77 Calm 30.16 1021 9 14 0.00 0.00
3:53 am 03:53 Cloudy 49 9.4 43 6.1 80 80 NNE 5 7 30.16 1021 9 14 0.00 0.00
4:53 am 04:53 Mostly Cloudy 47 8.3 41 5 80 80 Calm 30.16 1021 10 16 0.00 0.00
5:53 am 05:53 Clear 41 5 37 2.8 86 86 NNW 3 6 30.17 1022 8 13 0.00 0.00
6:53 am 06:53 Sunny with Mist and Fog 39 3.9 37 2.8 93 93 Calm 30.19 1023 6 10 0.00 0.00
7:53 am 07:53 Sunny with Mist and Fog 44 6.7 40 4.4 85 85 Calm 30.20 1023 6 10 0.00 0.00
8:53 am 08:53 Sunny 52 11.1 39 3.9 61 61 VRB 3 6 30.19 1022 10 16 0.00 0.00
9:53 am 09:53 Sunny 56 13.3 38 3.3 51 51 ENE 3 6 30.18 1022 10 16 0.00 0.00
10:53 am 10:53 Sunny 59 15 41 5 51 51 VRB 7 11 30.18 1022 10 16 0.00 0.00
11:53 am 11:53 Sunny 62 16.7 40 4.4 44 44 VRB 6 9 30.17 1022 10 16 0.00 0.00
12:53 pm 12:53 Sunny 64 17.8 40 4.4 41 41 S 8 13 30.16 1021 10 16 0.00 0.00
1:53 pm 13:53 Sunny 64 17.8 38 3.3 38 38 S 5 7 30.14 1021 10 16 0.00 0.00
2:53 pm 14:53 Sunny 67 19.4 41 5 39 39 E 8 13 30.10 1019 10 16 0.00 0.00
3:53 pm 15:53 Sunny 69 20.6 39 3.9 33 33 ESE 6 9 30.08 1019 10 16 0.00 0.00
4:53 pm 16:53 Mostly Sunny 69 20.6 38 3.3 32 32 SSE 8 13 30.06 1018 10 16 0.00 0.00
5:53 pm 17:53 Sunny 69 20.6 39 3.9 33 33 ESE 9 15 30.06 1018 10 16 0.00 0.00
6:53 pm 18:53 Sunny 69 20.6 38 3.3 32 32 VRB 5 7 30.06 1018 10 16 0.00 0.00
7:53 pm 19:53 Sunny 66 18.9 37 2.8 34 34 SSE 5 7 30.05 1018 10 16 0.00 0.00
8:53 pm 20:53 Clear 63 17.2 37 2.8 38 38 Calm 30.06 1018 10 16 0.00 0.00
9:53 pm 21:53 Clear 54 12.2 41 5 62 62 Calm 30.08 1019 10 16 0.00 0.00
10:53 pm 22:53 Clear 51 10.6 41 5 69 69 E 5 7 30.09 1019 10 16 0.00 0.00
11:53 pm 23:53 Clear 51 10.6 40 4.4 66 66 Calm 30.10 1019 10 16 0.00 0.00

Powered by AerisWeather